Probability
0 0 0 0 0 0 0 0 0 0 0 0 0 0 0 0 0 0 0 0 1 3 7 12 17 17 15 15 16 13 9 5 5 5 4 2 0 0 1 2 4 4 3 2 2 3 3 4 5
0 0 0 0 0 0 0 0 0 0 0 0 0 0 0 0 0 0 0 0 1 3 6 11 15 15 13 16 16 12 8 6 5 5 5 3 1 1 1 2 3 4 4 4 5 6 5 5 6
0 0 0 0 0 0 0 0 0 0 0 0 0 0 0 0 0 0 0 0 1 3 6 10 13 12 12 15 16 11 8 6 6 6 6 4 3 3 3 3 3 3 5 8 12 13 11 9 9
0 0 0 0 0 0 0 0 0 0 0 0 0 0 0 0 0 0 0 0 1 3 7 10 11 11 12 14 15 12 9 8 9 8 6 4 5 8 8 6 5 5 7 12 17 18 16 13 11
0 0 0 0 0 0 0 0 0 0 0 0 0 0 0 0 0 0 0 0 1 3 8 11 11 11 12 13 13 12 9 9 11 10 6 3 5 9 9 7 6 5 8 13 16 18 18 14 11
0 0 0 0 0 0 0 0 0 0 0 0 0 0 0 0 0 0 0 1 1 4 8 11 11 12 12 12 11 10 9 9 11 11 8 5 5 7 7 6 4 4 8 11 14 16 18 16 12
0 0 0 0 0 0 0 0 0 0 0 0 0 0 0 0 0 0 0 1 2 4 7 9 11 12 13 12 11 10 8 8 9 10 8 6 5 5 5 4 2 4 7 11 14 16 19 19 17
0 0 0 0 0 0 0 0 0 0 0 0 0 0 0 0 0 0 0 0 1 3 5 7 10 12 13 12 11 10 9 7 7 8 7 4 3 3 3 2 2 3 7 12 16 19 22 22 20
0 0 0 0 0 0 0 0 0 0 0 0 0 0 0 0 0 0 0 0 1 2 4 5 8 11 12 11 10 10 8 7 5 4 4 3 1 1 1 1 1 2 7 13 17 21 23 21 16
0 0 0 0 0 0 0 0 0 0 0 0 0 0 0 0 0 0 0 0 0 1 2 3 5 8 10 11 10 10 8 6 2 1 2 2 1 0 0 0 0 1 4 9 14 16 17 14 9
0 0 0 0 0 0 0 0 0 0 0 0 0 0 0 0 0 0 0 0 0 0 1 2 3 5 8 9 10 10 8 5 1 1 3 3 2 1 1 1 1 1 2 5 8 9 8 5 3
0 0 0 0 0 0 0 0 0 0 0 0 0 0 0 0 0 0 0 0 0 0 0 1 1 3 6 7 7 8 7 4 1 2 4 5 3 2 1 1 3 3 3 4 5 5 4 2 1
0 0 0 0 0 0 0 0 0 0 0 0 0 0 0 0 0 0 0 0 0 0 0 0 0 2 5 5 5 5 5 3 1 2 4 5 4 3 1 0 2 4 5 4 3 3 4 3 3
0 0 0 0 0 0 0 0 0 0 0 0 0 0 0 0 0 0 0 0 0 0 0 0 0 1 4 5 4 4 3 3 2 3 3 4 3 2 0 0 0 2 3 3 1 1 3 4 3
0 0 0 0 0 0 0 0 0 0 0 0 0 0 0 0 0 0 0 0 0 0 0 0 0 1 4 5 5 4 3 3 3 3 3 3 2 1 0 0 0 0 1 1 1 1 1 2 2
0 0 0 0 0 0 0 0 0 0 0 0 0 0 0 0 0 0 0 0 0 0 0 0 0 1 3 4 4 3 3 3 3 2 3 3 2 1 0 0 0 0 0 0 0 0 0 0 0
0 0 0 0 0 0 0 0 0 0 0 0 0 0 0 0 0 0 0 0 0 0 0 0 0 0 2 3 3 3 3 3 2 1 2 3 2 1 0 0 0 0 0 0 0 0 0 0 0
0 0 0 0 0 0 0 0 0 0 0 0 0 0 0 0 0 0 0 0 0 0 0 0 0 1 2 3 3 3 3 3 1 0 1 2 2 1 0 0 0 0 0 0 0 0 0 0 0
0 0 0 0 0 0 0 0 0 0 0 0 0 0 0 0 0 0 0 0 0 0 0 0 0 1 2 3 3 3 3 2 1 0 0 1 1 0 0 0 0 0 0 0 0 0 0 0 0
0 0 0 0 0 0 0 0 0 0 0 0 0 0 0 0 0 0 0 0 0 0 0 0 0 1 2 3 3 3 3 2 1 0 0 0 0 0 0 0 0 0 0 0 0 0 0 0 0
0 0 0 0 0 0 0 0 0 0 0 0 0 0 0 0 0 0 0 0 0 0 0 0 0 0 1 3 3 3 3 2 1 0 0 0 0 0 0 0 0 0 0 0 0 0 0 0 0
0 0 0 0 0 0 0 0 0 0 0 0 0 0 0 0 0 0 0 0 0 0 0 0 0 0 1 3 3 3 3 1 0 0 0 0 0 0 0 0 0 0 0 0 0 0 0 0 0
0 0 0 0 0 0 0 0 0 0 0 0 0 0 0 0 0 0 0 0 0 0 0 0 0 1 2 3 3 3 2 1 0 0 0 0 0 0 0 0 0 0 0 0 0 0 0 0 0
0 0 0 0 0 0 0 0 0 0 0 0 0 0 0 0 0 0 0 1 1 1 0 0 0 1 2 3 3 3 2 1 0 0 0 0 0 0 0 0 0 0 0 0 0 0 0 0 0
0 0 0 0 0 0 0 0 0 0 0 0 0 0 0 0 0 0 0 1 2 1 0 0 0 1 2 3 3 3 2 1 0 0 0 0 0 0 0 0 0 0 0 0 0 0 0 0 0
0 0 0 0 0 0 0 0 0 0 0 0 0 0 0 0 0 0 0 1 1 1 0 0 0 0 1 3 3 3 1 0 0 0 0 0 0 0 0 0 0 0 0 0 0 0 0 0 0
0 0 0 0 0 0 0 0 0 0 0 0 0 0 0 0 0 0 0 0 0 0 0 0 0 0 1 2 3 2 1 0 0 0 0 0 0 0 0 0 0 0 0 0 0 0 0 0 0
0 0 0 0 0 0 0 0 0 0 0 0 0 0 0 0 0 0 0 0 0 0 0 0 0 0 0 1 2 1 0 0 0 0 0 0 0 0 0 0 0 0 0 0 0 0 0 0 0
0 0 0 0 0 0 0 0 0 0 0 0 0 0 0 0 0 0 0 0 0 0 0 0 0 0 0 0 0 0 0 0 0 0 0 0 0 0 0 0 0 0 0 0 0 0 0 0 0
0 0 0 0 0 0 0 0 0 0 0 0 0 0 0 0 0 0 0 0 0 0 0 0 0 0 0 0 0 0 0 0 0 0 0 0 0 0 0 0 0 0 0 0 0 0 0 0 0
Wind_Speed
11 10 7 3 3 5 7 5 1 4 3 5 6 5 5 6 6 8 3 4 4 6 8 8 9 9 9 8 7 6 4 3 2 1 1 1 2 3 3 4 5 5 5 5 5 6 6 7 7
10 8 4 3 4 5 6 5 3 4 5 4 2 2 2 5 7 8 4 3 4 7 8 8 9 9 9 8 7 7 5 4 2 1 1 1 2 2 3 4 5 5 5 5 5 5 6 6 7
11 8 4 4 5 5 2 4 6 7 5 1 1 2 3 4 7 5 3 2 4 6 7 7 9 9 8 8 8 7 6 4 4 2 1 0 1 2 3 3 4 5 5 5 6 5 6 6 7
5 3 4 5 9 6 2 4 6 4 3 0 1 2 4 6 5 4 3 3 4 5 7 6 8 7 8 7 7 7 6 5 4 3 2 1 1 1 2 3 3 4 5 5 6 6 6 7 8
4 4 5 6 9 5 2 5 3 1 2 2 0 2 4 6 7 5 4 4 4 5 5 5 6 6 6 6 6 6 6 4 4 3 3 2 2 2 2 3 3 4 5 5 6 7 7 7 8
3 4 5 8 8 4 3 2 1 3 1 1 1 0 4 5 6 4 4 4 4 4 4 4 4 4 4 5 5 5 5 4 3 3 2 2 2 2 2 3 4 4 5 6 6 7 8 8 8
4 4 6 8 4 2 4 3 1 3 1 1 2 1 4 4 5 3 3 4 4 4 3 3 2 2 3 3 4 4 4 4 3 3 3 3 3 4 4 4 4 5 5 6 7 8 8 9 9
4 4 6 6 4 0 4 2 2 4 2 3 2 2 3 3 3 3 3 3 3 3 3 3 2 2 2 1 2 3 3 3 3 3 3 4 4 4 4 4 5 5 6 6 7 8 8 9 9
3 4 5 3 2 3 5 1 1 1 3 1 1 2 3 3 3 2 1 1 2 2 3 3 3 3 3 2 2 2 2 2 3 2 3 2 1 2 3 4 5 6 7 8 8 8 8 8 9
3 3 2 5 6 4 3 1 2 2 4 4 3 2 2 2 1 2 2 1 2 2 2 3 3 3 3 3 2 1 2 2 2 2 2 1 1 2 3 2 4 5 7 7 8 8 8 6 4
4 4 3 3 5 5 3 3 3 4 5 4 2 1 1 0 2 3 2 2 1 2 3 3 2 2 2 2 1 1 1 1 2 2 2 2 1 1 1 1 1 2 4 3 4 5 4 4 4
4 4 3 2 3 3 4 4 5 7 6 4 3 2 2 3 4 3 2 2 1 2 2 3 2 1 2 2 2 1 1 1 1 2 2 1 1 1 1 1 1 1 1 2 2 3 4 5 5
6 4 3 2 2 4 6 8 7 9 8 6 4 3 4 5 4 3 2 2 1 1 2 2 1 1 1 1 2 1 1 1 1 1 2 2 1 1 1 1 1 2 2 2 2 3 4 5 5
3 4 5 5 5 5 7 9 7 9 7 7 6 6 6 5 4 3 2 2 1 0 1 1 1 1 1 1 1 1 1 1 1 1 2 2 1 1 1 2 2 2 2 2 3 3 4 4 4
3 5 7 7 7 2 3 9 10 10 6 7 7 7 6 5 4 3 2 2 1 1 1 1 1 2 1 1 2 1 1 1 1 1 2 2 2 2 2 2 2 2 2 2 2 3 2 3 4
5 5 5 5 5 4 1 8 3 5 5 6 6 6 5 5 4 3 3 2 1 1 1 0 1 1 2 1 2 2 1 1 1 2 2 2 2 2 2 2 2 2 2 2 2 3 3 3 3
6 5 4 3 5 4 5 8 4 3 6 7 7 6 5 4 3 3 3 3 2 1 1 1 1 1 2 2 2 2 2 2 2 2 2 2 3 3 2 2 2 2 2 2 3 3 3 3 3
2 4 4 2 5 4 7 11 10 7 8 8 7 6 5 4 4 4 4 3 2 1 1 1 1 1 2 2 1 1 2 2 2 2 2 3 3 3 2 2 2 3 2 3 3 3 3 3 3
5 6 7 5 0 2 8 13 12 9 8 8 7 6 5 4 4 4 3 3 3 2 1 1 1 1 1 1 1 2 2 2 2 2 3 3 3 4 3 3 3 2 3 4 4 3 4 3 2
5 7 7 5 1 3 9 14 14 11 8 6 4 4 3 3 4 4 3 2 2 2 2 1 2 2 2 2 2 2 3 3 3 3 3 4 4 4 3 3 3 3 3 4 4 4 3 3 2
6 6 5 6 7 7 7 10 7 3 3 3 2 2 2 4 4 4 3 2 2 1 1 1 2 2 3 3 2 2 2 2 2 3 3 4 4 4 4 4 4 4 4 4 5 4 5 4 4
5 2 4 5 4 4 2 7 5 4 5 5 4 4 3 3 3 3 2 2 2 2 1 2 3 3 4 3 3 4 3 4 4 4 4 5 5 5 5 5 5 4 4 5 5 5 4 5 5
1 3 3 5 5 6 4 6 8 5 5 5 5 4 4 4 3 3 2 2 2 2 2 3 3 4 4 4 4 5 5 4 4 4 5 5 5 5 6 5 5 5 5 5 6 5 6 5 5
1 1 4 4 2 5 7 7 7 3 5 5 5 4 4 4 3 3 2 2 2 2 2 3 4 5 5 4 5 6 6 6 5 5 5 5 4 4 6 5 5 5 5 6 6 6 7 6 6
2 1 1 1 3 7 4 5 7 1 3 4 5 5 4 3 3 2 1 2 2 2 3 4 5 5 5 5 5 6 6 6 6 6 5 5 4 4 5 5 5 5 6 7 7 7 8 8 8
5 4 3 4 4 2 1 6 6 2 4 4 4 3 3 2 1 1 1 2 2 3 3 4 5 5 5 5 5 6 6 5 5 6 5 6 5 5 6 6 6 7 7 8 7 7 8 8 8
4 5 1 1 3 4 6 6 3 4 4 4 2 2 2 2 2 2 1 2 2 3 3 4 5 5 5 5 6 6 6 5 6 6 6 5 5 5 6 7 7 7 8 9 8 7 8 8 8
3 2 3 3 3 5 6 6 4 5 4 3 3 2 2 2 2 1 1 2 2 3 3 4 4 5 6 5 5 6 5 6 5 5 7 7 7 6 7 7 8 8 9 9 9 8 8 9 8
5 3 4 4 4 4 5 4 1 4 3 2 2 2 2 2 2 2 2 2 3 3 4 4 5 5 5 5 5 6 6 6 6 6 7 7 7 7 7 7 8 8 9 9 9 9 9 10 9
6 7 7 5 6 5 4 7 1 2 2 2 1 2 3 3 2 2 2 3 3 4 4 4 5 5 5 5 5 6 6 6 6 7 7 7 7 7 7 7 8 9 10 10 10 10 10 10 10
Wind_Direction
292 262 246 244 237 233 241 238 124 83 55 37 19 6 23 30 31 100 127 25 30 69 77 72 55 47 42 43 47 51 55 64 69 89 132 175 176 183 181 186 183 183 181 175 174 167 161 155 151
287 257 237 238 241 240 235 210 133 82 66 58 33 341 52 74 77 96 83 12 34 71 78 71 59 50 43 41 42 45 44 42 42 52 91 179 198 213 206 203 201 196 189 179 171 166 165 158 156
271 257 241 232 232 242 320 69 91 82 78 70 84 15 35 69 74 82 75 10 49 73 83 75 62 51 44 39 38 39 39 35 27 27 32 110 212 213 217 215 206 202 196 185 176 165 161 163 160
254 227 240 245 252 260 15 68 70 97 119 141 78 96 75 54 67 81 65 28 44 67 84 83 68 56 45 39 34 33 31 30 25 18 6 328 273 241 232 225 217 212 201 190 182 175 169 168 170
245 239 230 236 244 255 60 60 66 236 160 146 334 92 86 76 79 66 51 30 34 52 73 86 73 63 53 42 34 31 26 22 19 12 359 329 290 266 245 232 221 216 212 202 192 182 177 174 178
243 242 241 239 234 194 118 96 241 259 207 109 345 81 110 106 80 49 38 32 35 47 70 94 82 69 58 47 37 29 21 14 7 354 335 318 286 262 251 235 229 224 220 212 203 194 186 183 185
262 258 256 267 263 170 121 93 261 271 240 89 3 319 126 100 73 47 38 36 36 36 52 73 91 77 56 46 38 30 12 1 351 335 308 291 281 260 245 237 229 226 220 219 213 206 200 196 192
298 279 258 258 261 168 84 79 23 342 334 43 356 293 115 95 63 39 30 30 34 34 37 50 49 47 35 29 31 22 352 336 328 313 298 289 279 265 247 234 230 229 222 221 220 214 208 202 196
289 263 267 292 326 75 87 92 101 351 298 288 289 354 68 71 46 15 354 359 28 36 37 41 36 29 12 351 16 351 335 322 315 304 306 303 280 271 256 237 234 227 226 224 220 217 211 205 199
234 256 309 15 13 32 67 337 340 284 258 243 218 170 99 63 355 303 297 317 13 28 37 49 38 18 359 349 358 325 346 344 325 335 335 307 304 292 298 273 253 238 233 228 223 220 209 198 197
230 255 330 23 25 5 337 294 280 275 265 257 253 127 82 345 274 277 295 320 8 34 39 48 39 18 358 335 332 334 341 340 333 337 335 318 324 316 316 289 257 242 235 228 225 215 209 200 193
266 270 303 346 42 321 292 288 280 250 258 305 341 348 292 264 267 275 298 318 355 49 53 50 36 12 360 344 321 313 337 334 329 320 312 317 312 315 295 267 258 244 234 231 219 217 218 211 202
243 272 285 286 256 258 271 267 269 260 259 268 266 257 251 252 257 264 283 303 348 38 65 62 38 24 359 329 304 331 323 320 315 319 304 308 308 300 294 280 263 260 253 233 230 231 224 218 213
316 300 282 262 250 251 264 266 252 248 232 232 227 229 234 237 238 248 259 277 295 48 73 65 34 28 358 332 312 310 306 300 314 324 312 309 303 291 291 285 269 258 253 241 238 240 235 229 222
305 278 261 229 221 214 289 270 232 235 225 228 226 228 225 226 225 228 225 223 232 154 86 60 14 8 342 328 311 307 297 303 293 277 298 300 303 302 296 286 277 262 263 264 262 257 248 241 236
228 240 245 185 185 149 204 276 243 173 197 228 231 233 222 220 215 209 204 190 192 141 117 103 0 352 321 309 294 293 299 303 285 280 288 291 287 292 296 285 277 276 268 256 263 260 255 245 239
212 239 242 164 181 174 217 266 271 186 214 233 234 230 217 203 201 192 180 168 166 145 145 167 163 296 296 281 267 275 283 290 280 283 277 280 278 275 271 271 274 276 271 262 260 264 258 252 244
249 265 277 234 175 221 248 263 271 254 240 242 240 228 212 196 195 178 170 160 157 151 157 196 196 255 279 275 273 279 283 288 289 280 274 277 270 267 264 262 263 272 267 262 253 256 260 254 244
318 305 293 295 165 257 265 273 274 265 248 240 235 221 204 192 165 147 157 161 161 164 183 221 239 266 274 266 270 266 261 271 277 264 270 274 274 271 257 260 252 255 256 256 256 257 255 257 245
269 277 282 293 38 302 279 279 274 256 241 232 228 218 198 167 157 148 160 166 175 178 189 235 242 257 265 248 240 236 241 242 244 251 253 252 259 262 263 252 248 245 254 259 257 253 253 253 221
255 258 278 302 328 272 274 286 255 205 182 172 205 198 186 174 165 158 173 179 172 176 198 272 273 271 266 255 247 257 262 263 259 261 251 245 249 252 253 250 247 242 241 250 252 245 241 245 234
264 307 304 311 316 294 306 296 273 211 188 183 197 196 184 155 152 160 167 172 185 200 197 251 264 266 262 259 250 248 252 254 255 249 248 247 243 245 248 247 246 242 242 247 251 251 247 238 234
256 21 311 286 274 284 243 248 274 210 201 192 182 175 159 149 154 165 176 195 206 200 206 232 255 260 258 255 253 250 252 251 254 259 258 255 246 237 238 239 240 243 243 244 247 249 246 242 236
105 295 267 249 260 262 223 214 273 226 193 164 154 149 145 149 164 174 183 197 218 216 222 241 257 261 260 254 253 250 252 256 261 265 259 254 250 242 237 237 237 243 246 245 245 244 242 245 245
185 170 309 256 223 247 203 210 251 291 82 125 146 151 148 148 158 171 197 216 234 243 252 253 260 265 265 262 258 254 248 248 249 255 256 256 255 252 242 245 239 244 247 247 244 244 241 239 240
197 193 187 228 251 286 206 233 247 162 112 103 112 133 138 152 173 194 219 243 252 255 259 267 268 271 269 266 266 258 248 241 245 250 253 252 249 247 242 242 241 248 252 251 243 245 242 239 236
179 213 252 287 292 277 250 245 226 151 135 138 147 165 184 213 226 234 246 263 276 283 277 276 278 281 276 268 269 266 253 244 248 254 255 255 252 251 245 243 245 249 254 250 243 242 241 238 234
258 191 147 178 225 255 256 237 234 160 169 173 184 199 223 239 255 272 279 278 282 287 289 291 281 277 274 268 269 277 267 255 251 255 258 256 256 254 250 250 249 251 255 251 244 241 238 239 236
186 203 193 203 223 231 264 257 57 133 150 174 192 204 242 264 275 275 270 277 290 301 298 292 289 284 281 274 274 275 272 262 257 255 257 258 256 255 254 253 255 254 258 254 247 241 239 240 238
202 198 181 188 224 218 249 266 338 107 115 131 210 262 268 263 272 280 286 296 299 297 294 294 288 281 281 279 280 278 274 265 260 259 259 263 263 260 259 258 259 260 262 254 247 244 240 238 236